Year,Month,Day,Hour,Minute,Value (Times are PST for temperature in C)
2014,05,18,00,00,13.80
2014,05,18,00,01,13.80
2014,05,18,00,02,13.90
2014,05,18,00,03,13.90
2014,05,18,00,04,13.90
2014,05,18,00,05,13.90
2014,05,18,00,06,13.90
2014,05,18,00,07,13.90
2014,05,18,00,08,13.90
2014,05,18,00,09,13.90
2014,05,18,00,10,13.90
2014,05,18,00,11,13.90
2014,05,18,00,12,13.90
2014,05,18,00,13,13.90
2014,05,18,00,14,13.80
2014,05,18,00,15,13.80
2014,05,18,00,16,13.80
2014,05,18,00,17,13.80
2014,05,18,00,18,13.70
2014,05,18,00,19,13.70
2014,05,18,00,20,13.60
2014,05,18,00,21,13.60
2014,05,18,00,22,13.60
2014,05,18,00,23,13.50
2014,05,18,00,24,13.50
2014,05,18,00,25,13.40
2014,05,18,00,26,13.40
2014,05,18,00,27,13.40
2014,05,18,00,28,13.30
2014,05,18,00,29,13.30
2014,05,18,00,30,13.20
2014,05,18,00,31,13.20
2014,05,18,00,32,13.10
2014,05,18,00,33,13.10
2014,05,18,00,34,13.00
2014,05,18,00,35,13.00
2014,05,18,00,36,12.90
2014,05,18,00,37,12.90
2014,05,18,00,38,12.90
2014,05,18,00,39,12.80
2014,05,18,00,40,12.80
2014,05,18,00,41,12.80
2014,05,18,00,42,12.70
2014,05,18,00,43,12.70
2014,05,18,00,44,12.60
2014,05,18,00,45,12.60
2014,05,18,00,46,12.50
2014,05,18,00,47,12.50
2014,05,18,00,48,12.40
2014,05,18,00,49,12.30
2014,05,18,00,50,12.30
2014,05,18,00,51,12.30
2014,05,18,00,52,12.20
2014,05,18,00,53,12.20
2014,05,18,00,54,12.20
2014,05,18,00,55,12.10
2014,05,18,00,56,12.10
2014,05,18,00,57,12.10
2014,05,18,00,58,12.10
2014,05,18,00,59,12.00
2014,05,18,01,00,12.00
2014,05,18,01,01,11.90
2014,05,18,01,02,11.90
2014,05,18,01,03,11.90
2014,05,18,01,04,11.90
2014,05,18,01,05,11.90
2014,05,18,01,06,11.80
2014,05,18,01,07,11.80
2014,05,18,01,08,11.80
2014,05,18,01,09,11.80
2014,05,18,01,10,11.80
2014,05,18,01,11,11.80
2014,05,18,01,12,11.80
2014,05,18,01,13,11.80
2014,05,18,01,14,11.80
2014,05,18,01,15,11.70
2014,05,18,01,16,11.70
2014,05,18,01,17,11.70
2014,05,18,01,18,11.70
2014,05,18,01,19,11.70
2014,05,18,01,20,11.70
2014,05,18,01,21,11.60
2014,05,18,01,22,11.60
2014,05,18,01,23,11.60
2014,05,18,01,24,11.60
2014,05,18,01,25,11.60
2014,05,18,01,26,11.60
2014,05,18,01,27,11.60
2014,05,18,01,28,11.60
2014,05,18,01,29,11.60
2014,05,18,01,30,11.60
2014,05,18,01,31,11.60
2014,05,18,01,32,11.60
2014,05,18,01,33,11.60
2014,05,18,01,34,11.60
2014,05,18,01,35,11.60
2014,05,18,01,36,11.60
2014,05,18,01,37,11.60
2014,05,18,01,38,11.60
2014,05,18,01,39,11.60
2014,05,18,01,40,11.60
2014,05,18,01,41,11.50
2014,05,18,01,42,11.50
2014,05,18,01,43,11.50
2014,05,18,01,44,11.50
2014,05,18,01,45,11.40
2014,05,18,01,46,11.40
2014,05,18,01,47,11.40
2014,05,18,01,48,11.30
2014,05,18,01,49,11.30
2014,05,18,01,50,11.30
2014,05,18,01,51,11.30
2014,05,18,01,52,11.30
2014,05,18,01,53,11.30
2014,05,18,01,54,11.30
2014,05,18,01,55,11.20
2014,05,18,01,56,11.20
2014,05,18,01,57,11.20
2014,05,18,01,58,11.20
2014,05,18,01,59,11.20
2014,05,18,02,00,11.20
2014,05,18,02,01,11.20
2014,05,18,02,02,11.20
2014,05,18,02,03,11.20
2014,05,18,02,04,11.10
2014,05,18,02,05,11.10
2014,05,18,02,06,11.10
2014,05,18,02,07,11.10
2014,05,18,02,08,11.10
2014,05,18,02,09,11.10
2014,05,18,02,10,11.10
2014,05,18,02,11,11.10
2014,05,18,02,12,11.10
2014,05,18,02,13,11.10
2014,05,18,02,14,11.10
2014,05,18,02,15,11.10
2014,05,18,02,16,11.00
2014,05,18,02,17,11.00
2014,05,18,02,18,11.00
2014,05,18,02,19,11.00
2014,05,18,02,20,11.00
2014,05,18,02,21,11.00
2014,05,18,02,22,11.00
2014,05,18,02,23,10.90
2014,05,18,02,24,10.90
2014,05,18,02,25,10.90
2014,05,18,02,26,10.90
2014,05,18,02,27,10.90
2014,05,18,02,28,10.90
2014,05,18,02,29,10.90
2014,05,18,02,30,10.90
2014,05,18,02,31,10.90
2014,05,18,02,32,10.90
2014,05,18,02,33,10.90
2014,05,18,02,34,10.90
2014,05,18,02,35,10.90
2014,05,18,02,36,10.90
2014,05,18,02,37,10.90
2014,05,18,02,38,10.90
2014,05,18,02,39,10.90
2014,05,18,02,40,11.00
2014,05,18,02,41,11.00
2014,05,18,02,42,11.00
2014,05,18,02,43,11.00
2014,05,18,02,44,11.00
2014,05,18,02,45,11.00
2014,05,18,02,46,11.00
2014,05,18,02,47,11.00
2014,05,18,02,48,11.00
2014,05,18,02,49,11.10
2014,05,18,02,50,11.10
2014,05,18,02,51,11.10
2014,05,18,02,52,11.10
2014,05,18,02,53,11.10
2014,05,18,02,54,11.20
2014,05,18,02,55,11.20
2014,05,18,02,56,11.20
2014,05,18,02,57,11.20
2014,05,18,02,58,11.20
2014,05,18,02,59,11.20
2014,05,18,03,00,11.20
2014,05,18,03,01,11.20
2014,05,18,03,02,11.30
2014,05,18,03,03,11.30
2014,05,18,03,04,11.30
2014,05,18,03,05,11.30
2014,05,18,03,06,11.30
2014,05,18,03,07,11.30
2014,05,18,03,08,11.30
2014,05,18,03,09,11.40
2014,05,18,03,10,11.40
2014,05,18,03,11,11.40
2014,05,18,03,12,11.40
2014,05,18,03,13,11.40
2014,05,18,03,14,11.40
2014,05,18,03,15,11.40
2014,05,18,03,16,11.40
2014,05,18,03,17,11.40
2014,05,18,03,18,11.40
2014,05,18,03,19,11.40
2014,05,18,03,20,11.40
2014,05,18,03,21,11.40
2014,05,18,03,22,11.50
2014,05,18,03,23,11.50
2014,05,18,03,24,11.50
2014,05,18,03,25,11.50
2014,05,18,03,26,11.50
2014,05,18,03,27,11.50
2014,05,18,03,28,11.50
2014,05,18,03,29,11.50
2014,05,18,03,30,11.50
2014,05,18,03,31,11.50
2014,05,18,03,32,11.50
2014,05,18,03,33,11.50
2014,05,18,03,34,11.50
2014,05,18,03,35,11.50
2014,05,18,03,36,11.50
2014,05,18,03,37,11.50
2014,05,18,03,38,11.40
2014,05,18,03,39,11.40
2014,05,18,03,40,11.40
2014,05,18,03,41,11.40
2014,05,18,03,42,11.40
2014,05,18,03,43,11.40
2014,05,18,03,44,11.40
2014,05,18,03,45,11.40
2014,05,18,03,46,11.40
2014,05,18,03,47,11.40
2014,05,18,03,48,11.40
2014,05,18,03,49,11.40
2014,05,18,03,50,11.40
2014,05,18,03,51,11.30
2014,05,18,03,52,11.30
2014,05,18,03,53,11.30
2014,05,18,03,54,11.30
2014,05,18,03,55,11.30
2014,05,18,03,56,11.30
2014,05,18,03,57,11.30
2014,05,18,03,58,11.30
2014,05,18,03,59,11.30
2014,05,18,04,00,11.30
2014,05,18,04,01,11.30
2014,05,18,04,02,11.30
2014,05,18,04,03,11.30
2014,05,18,04,04,11.30
2014,05,18,04,05,11.30
2014,05,18,04,06,11.30
2014,05,18,04,07,11.30
2014,05,18,04,08,11.30
2014,05,18,04,09,11.30
2014,05,18,04,10,11.30
2014,05,18,04,11,11.30
2014,05,18,04,12,11.30
2014,05,18,04,13,11.30
2014,05,18,04,14,11.30
2014,05,18,04,15,11.30
2014,05,18,04,16,11.30
2014,05,18,04,17,11.30
2014,05,18,04,18,11.30
2014,05,18,04,19,11.30
2014,05,18,04,20,11.30
2014,05,18,04,21,11.30
2014,05,18,04,22,11.30
2014,05,18,04,23,11.30
2014,05,18,04,24,11.30
2014,05,18,04,25,11.30
2014,05,18,04,26,11.40
2014,05,18,04,27,11.40
2014,05,18,04,28,11.40
2014,05,18,04,29,11.40
2014,05,18,04,30,11.40
2014,05,18,04,31,11.40
2014,05,18,04,32,11.40
2014,05,18,04,33,11.40
2014,05,18,04,34,11.50
2014,05,18,04,35,11.50
2014,05,18,04,36,11.50
2014,05,18,04,37,11.50
2014,05,18,04,38,11.50
2014,05,18,04,39,11.50
2014,05,18,04,40,11.50
2014,05,18,04,41,11.50
2014,05,18,04,42,11.50
2014,05,18,04,43,11.50
2014,05,18,04,44,11.50
2014,05,18,04,45,11.50
2014,05,18,04,46,11.50
2014,05,18,04,47,11.50
2014,05,18,04,48,11.50
2014,05,18,04,49,11.50
2014,05,18,04,50,11.50
2014,05,18,04,51,11.50
2014,05,18,04,52,11.50
2014,05,18,04,53,11.50
2014,05,18,04,54,11.50
2014,05,18,04,55,11.50
2014,05,18,04,56,11.50
2014,05,18,04,57,11.50
2014,05,18,04,58,11.50
2014,05,18,04,59,11.60
2014,05,18,05,00,11.60
2014,05,18,05,01,11.60
2014,05,18,05,02,11.60
2014,05,18,05,03,11.60
2014,05,18,05,04,11.60
2014,05,18,05,05,11.60
2014,05,18,05,06,11.60
2014,05,18,05,07,11.60
2014,05,18,05,08,11.60
2014,05,18,05,09,11.60
2014,05,18,05,10,11.60
2014,05,18,05,11,11.60
2014,05,18,05,12,11.60
2014,05,18,05,13,11.70
2014,05,18,05,14,11.70
2014,05,18,05,15,11.70
2014,05,18,05,16,11.70
2014,05,18,05,17,11.70
2014,05,18,05,18,11.70
2014,05,18,05,19,11.70
2014,05,18,05,20,11.70
2014,05,18,05,21,11.70
2014,05,18,05,22,11.70
2014,05,18,05,23,11.70
2014,05,18,05,24,11.70
2014,05,18,05,25,11.70
2014,05,18,05,26,11.70
2014,05,18,05,27,11.70
2014,05,18,05,28,11.70
2014,05,18,05,29,11.70
2014,05,18,05,30,11.70
2014,05,18,05,31,11.60
2014,05,18,05,32,11.60
2014,05,18,05,33,11.60
2014,05,18,05,34,11.60
2014,05,18,05,35,11.60
2014,05,18,05,36,11.60
2014,05,18,05,37,11.60
2014,05,18,05,38,11.60
2014,05,18,05,39,11.60
2014,05,18,05,40,11.60
2014,05,18,05,41,11.60
2014,05,18,05,42,11.60
2014,05,18,05,43,11.60
2014,05,18,05,44,11.60
2014,05,18,05,45,11.60
2014,05,18,05,46,11.60
2014,05,18,05,47,11.70
2014,05,18,05,48,11.70
2014,05,18,05,49,11.70
2014,05,18,05,50,11.70
2014,05,18,05,51,11.70
2014,05,18,05,52,11.70
2014,05,18,05,53,11.70
2014,05,18,05,54,11.70
2014,05,18,05,55,11.70
2014,05,18,05,56,11.80
2014,05,18,05,57,11.80
2014,05,18,05,58,11.80
2014,05,18,05,59,11.80
2014,05,18,06,00,11.80
2014,05,18,06,01,11.80
2014,05,18,06,02,11.80
2014,05,18,06,03,11.80
2014,05,18,06,04,11.80
2014,05,18,06,05,11.80
2014,05,18,06,06,11.80
2014,05,18,06,07,11.80
2014,05,18,06,08,11.80
2014,05,18,06,09,11.80
2014,05,18,06,10,11.80
2014,05,18,06,11,11.80
2014,05,18,06,12,11.80
2014,05,18,06,13,11.80
2014,05,18,06,14,11.80
2014,05,18,06,15,11.80
2014,05,18,06,16,11.70
2014,05,18,06,17,11.80
2014,05,18,06,18,11.80
2014,05,18,06,19,11.80
2014,05,18,06,20,11.80
2014,05,18,06,21,11.80
2014,05,18,06,22,11.80
2014,05,18,06,23,11.80
2014,05,18,06,24,11.80
2014,05,18,06,25,11.80
2014,05,18,06,26,11.80
2014,05,18,06,27,11.80
2014,05,18,06,28,11.80
2014,05,18,06,29,11.80
2014,05,18,06,30,11.80
2014,05,18,06,31,11.80
2014,05,18,06,32,11.80
2014,05,18,06,33,11.80
2014,05,18,06,34,11.80
2014,05,18,06,35,11.80
2014,05,18,06,36,11.80
2014,05,18,06,37,11.80
2014,05,18,06,38,11.80
2014,05,18,06,39,11.80
2014,05,18,06,40,11.80
2014,05,18,06,41,11.80
2014,05,18,06,42,11.80
2014,05,18,06,43,11.80
2014,05,18,06,44,11.80
2014,05,18,06,45,11.80
2014,05,18,06,46,11.80
2014,05,18,06,47,11.80
2014,05,18,06,48,11.80
2014,05,18,06,49,11.90
2014,05,18,06,50,11.90
2014,05,18,06,51,11.90
2014,05,18,06,52,11.90
2014,05,18,06,53,11.90
2014,05,18,06,54,11.90
2014,05,18,06,55,11.90
2014,05,18,06,56,11.90
2014,05,18,06,57,12.00
2014,05,18,06,58,12.00
2014,05,18,06,59,12.00
2014,05,18,07,00,12.10
2014,05,18,07,01,12.10
2014,05,18,07,02,12.10
2014,05,18,07,03,12.10
2014,05,18,07,04,12.10
2014,05,18,07,05,12.10
2014,05,18,07,06,12.10
2014,05,18,07,07,12.10
2014,05,18,07,08,12.10
2014,05,18,07,09,12.10
2014,05,18,07,10,12.10
2014,05,18,07,11,12.20
2014,05,18,07,12,12.20
2014,05,18,07,13,12.20
2014,05,18,07,14,12.20
2014,05,18,07,15,12.20
2014,05,18,07,16,12.20
2014,05,18,07,17,12.20
2014,05,18,07,18,12.20
2014,05,18,07,19,12.30
2014,05,18,07,20,12.30
2014,05,18,07,21,12.30
2014,05,18,07,22,12.30
2014,05,18,07,23,12.30
2014,05,18,07,24,12.40
2014,05,18,07,25,12.40
2014,05,18,07,26,12.40
2014,05,18,07,27,12.40
2014,05,18,07,28,12.40
2014,05,18,07,29,12.50
2014,05,18,07,30,12.50
2014,05,18,07,31,12.50
2014,05,18,07,32,12.60
2014,05,18,07,33,12.60
2014,05,18,07,34,12.60
2014,05,18,07,35,12.60
2014,05,18,07,36,12.70
2014,05,18,07,37,12.70
2014,05,18,07,38,12.70
2014,05,18,07,39,12.80
2014,05,18,07,40,12.80
2014,05,18,07,41,12.80
2014,05,18,07,42,12.80
2014,05,18,07,43,12.90
2014,05,18,07,44,12.90
2014,05,18,07,45,12.90
2014,05,18,07,46,12.90
2014,05,18,07,47,12.90
2014,05,18,07,48,12.90
2014,05,18,07,49,12.90
2014,05,18,07,50,12.90
2014,05,18,07,51,12.80
2014,05,18,07,52,12.80
2014,05,18,07,53,12.80
2014,05,18,07,54,12.70
2014,05,18,07,55,12.70
2014,05,18,07,56,12.60
2014,05,18,07,57,12.60
2014,05,18,07,58,12.60
2014,05,18,07,59,12.50
2014,05,18,08,00,12.50
2014,05,18,08,01,12.50
2014,05,18,08,02,12.50
2014,05,18,08,03,12.50
2014,05,18,08,04,12.60
2014,05,18,08,05,12.60
2014,05,18,08,06,12.60
2014,05,18,08,07,12.60
2014,05,18,08,08,12.60
2014,05,18,08,09,12.60
2014,05,18,08,10,12.60
2014,05,18,08,11,12.70
2014,05,18,08,12,12.70
2014,05,18,08,13,12.70
2014,05,18,08,14,12.70
2014,05,18,08,15,12.70
2014,05,18,08,16,12.80
2014,05,18,08,17,12.80
2014,05,18,08,18,12.80
2014,05,18,08,19,12.90
2014,05,18,08,20,12.90
2014,05,18,08,21,13.00
2014,05,18,08,22,13.00
2014,05,18,08,23,13.10
2014,05,18,08,24,13.10
2014,05,18,08,25,13.10
2014,05,18,08,26,13.10
2014,05,18,08,27,13.10
2014,05,18,08,28,13.20
2014,05,18,08,29,13.20
2014,05,18,08,30,13.20
2014,05,18,08,31,13.30
2014,05,18,08,32,13.30
2014,05,18,08,33,13.30
2014,05,18,08,34,13.30
2014,05,18,08,35,13.30
2014,05,18,08,36,13.30
2014,05,18,08,37,13.30
2014,05,18,08,38,13.30
2014,05,18,08,39,13.30
2014,05,18,08,40,13.30
2014,05,18,08,41,13.30
2014,05,18,08,42,13.30
2014,05,18,08,43,13.40
2014,05,18,08,44,13.40
2014,05,18,08,45,13.40
2014,05,18,08,46,13.50
2014,05,18,08,47,13.50
2014,05,18,08,48,13.50
2014,05,18,08,49,13.60
2014,05,18,08,50,13.60
2014,05,18,08,51,13.60
2014,05,18,08,52,13.60
2014,05,18,08,53,13.60
2014,05,18,08,54,13.70
2014,05,18,08,55,13.70
2014,05,18,08,56,13.70
2014,05,18,08,57,13.70
2014,05,18,08,58,13.70
2014,05,18,08,59,13.70
2014,05,18,09,00,13.70
2014,05,18,09,01,13.70
2014,05,18,09,02,13.70
2014,05,18,09,03,13.70
2014,05,18,09,04,13.70
2014,05,18,09,05,13.60
2014,05,18,09,06,13.60
2014,05,18,09,07,13.60
2014,05,18,09,08,13.60
2014,05,18,09,09,13.60
2014,05,18,09,10,13.70
2014,05,18,09,11,13.70
2014,05,18,09,12,13.70
2014,05,18,09,13,13.70
2014,05,18,09,14,13.70
2014,05,18,09,15,13.70
2014,05,18,09,16,13.70
2014,05,18,09,17,13.70
2014,05,18,09,18,13.70
2014,05,18,09,19,13.70
2014,05,18,09,20,13.80
2014,05,18,09,21,13.90
2014,05,18,09,22,13.90
2014,05,18,09,23,14.00
2014,05,18,09,24,14.10
2014,05,18,09,25,14.20
2014,05,18,09,26,14.20
2014,05,18,09,27,14.30
2014,05,18,09,28,14.40
2014,05,18,09,29,14.40
2014,05,18,09,30,14.50
2014,05,18,09,31,14.60
2014,05,18,09,32,14.60
2014,05,18,09,33,14.70
2014,05,18,09,34,14.70
2014,05,18,09,35,14.80
2014,05,18,09,36,14.80
2014,05,18,09,37,14.80
2014,05,18,09,38,14.90
2014,05,18,09,39,14.90
2014,05,18,09,40,15.00
2014,05,18,09,41,15.00
2014,05,18,09,42,15.10
2014,05,18,09,43,15.20
2014,05,18,09,44,15.30
2014,05,18,09,45,15.30
2014,05,18,09,46,15.40
2014,05,18,09,47,15.40
2014,05,18,09,48,15.50
2014,05,18,09,49,15.60
2014,05,18,09,50,15.60
2014,05,18,09,51,15.70
2014,05,18,09,52,15.70
2014,05,18,09,53,15.70
2014,05,18,09,54,15.70
2014,05,18,09,55,15.70
2014,05,18,09,56,15.70
2014,05,18,09,57,15.60
2014,05,18,09,58,15.60
2014,05,18,09,59,15.60
2014,05,18,10,00,15.60
2014,05,18,10,01,15.60
2014,05,18,10,02,15.70
2014,05,18,10,03,15.80
2014,05,18,10,04,15.80
2014,05,18,10,05,15.80
2014,05,18,10,06,15.80
2014,05,18,10,07,15.90
2014,05,18,10,08,15.90
2014,05,18,10,09,15.90
2014,05,18,10,10,15.90
2014,05,18,10,11,15.90
2014,05,18,10,12,15.90
2014,05,18,10,13,15.90
2014,05,18,10,14,16.00
2014,05,18,10,15,15.90
2014,05,18,10,16,15.80
2014,05,18,10,17,15.80
2014,05,18,10,18,15.80
2014,05,18,10,19,15.90
2014,05,18,10,20,15.90
2014,05,18,10,21,16.00
2014,05,18,10,22,16.00
2014,05,18,10,23,16.10
2014,05,18,10,24,16.10
2014,05,18,10,25,16.10
2014,05,18,10,26,16.00
2014,05,18,10,27,15.90
2014,05,18,10,28,15.80
2014,05,18,10,29,15.80
2014,05,18,10,30,15.80
2014,05,18,10,31,15.70
2014,05,18,10,32,15.70
2014,05,18,10,33,15.60
2014,05,18,10,34,15.60
2014,05,18,10,35,15.50
2014,05,18,10,36,15.50
2014,05,18,10,37,15.50
2014,05,18,10,38,15.60
2014,05,18,10,39,15.60
2014,05,18,10,40,15.60
2014,05,18,10,41,15.60
2014,05,18,10,42,15.60
2014,05,18,10,43,15.60
2014,05,18,10,44,15.60
2014,05,18,10,45,15.60
2014,05,18,10,46,15.60
2014,05,18,10,47,15.60
2014,05,18,10,48,15.60
2014,05,18,10,49,15.60
2014,05,18,10,50,15.60
2014,05,18,10,51,15.70
2014,05,18,10,52,15.70
2014,05,18,10,53,15.70
2014,05,18,10,54,15.80
2014,05,18,10,55,15.80
2014,05,18,10,56,15.90
2014,05,18,10,57,15.90
2014,05,18,10,58,15.90
2014,05,18,10,59,15.90
2014,05,18,11,00,15.90
2014,05,18,11,01,15.90
2014,05,18,11,02,15.90
2014,05,18,11,03,15.90
2014,05,18,11,04,15.90
2014,05,18,11,05,15.90
2014,05,18,11,06,15.90
2014,05,18,11,07,15.90
2014,05,18,11,08,15.90
2014,05,18,11,09,15.90
2014,05,18,11,10,15.90
2014,05,18,11,11,15.90
2014,05,18,11,12,16.00
2014,05,18,11,13,16.10
2014,05,18,11,14,16.20
2014,05,18,11,15,16.30
2014,05,18,11,16,16.40
2014,05,18,11,17,16.50
2014,05,18,11,18,16.60
2014,05,18,11,19,16.60
2014,05,18,11,20,16.60
2014,05,18,11,21,16.70
2014,05,18,11,22,16.70
2014,05,18,11,23,16.70
2014,05,18,11,24,16.70
2014,05,18,11,25,16.70
2014,05,18,11,26,16.70
2014,05,18,11,27,16.70
2014,05,18,11,28,16.70
2014,05,18,11,29,16.80
2014,05,18,11,30,16.80
2014,05,18,11,31,16.70
2014,05,18,11,32,16.60
2014,05,18,11,33,16.50
2014,05,18,11,34,16.50
2014,05,18,11,35,16.30
2014,05,18,11,36,16.30
2014,05,18,11,37,16.20
2014,05,18,11,38,16.10
2014,05,18,11,39,16.00
2014,05,18,11,40,15.90
2014,05,18,11,41,15.90
2014,05,18,11,42,15.90
2014,05,18,11,43,15.90
2014,05,18,11,44,15.80
2014,05,18,11,45,15.80
2014,05,18,11,46,15.90
2014,05,18,11,47,15.90
2014,05,18,11,48,15.90
2014,05,18,11,49,15.90
2014,05,18,11,50,15.90
2014,05,18,11,51,15.80
2014,05,18,11,52,15.80
2014,05,18,11,53,15.70
2014,05,18,11,54,15.60
2014,05,18,11,55,15.60
2014,05,18,11,56,15.60
2014,05,18,11,57,15.50
2014,05,18,11,58,15.50
2014,05,18,11,59,15.50
2014,05,18,12,00,15.50
2014,05,18,12,01,15.50
2014,05,18,12,02,15.50
2014,05,18,12,03,15.60
2014,05,18,12,04,15.50
2014,05,18,12,05,15.50
2014,05,18,12,06,15.50
2014,05,18,12,07,15.40
2014,05,18,12,08,15.40
2014,05,18,12,09,15.40
2014,05,18,12,10,15.40
2014,05,18,12,11,15.40
2014,05,18,12,12,15.30
2014,05,18,12,13,15.30
2014,05,18,12,14,15.40
2014,05,18,12,15,15.40
2014,05,18,12,16,15.40
2014,05,18,12,17,15.40
2014,05,18,12,18,15.40
2014,05,18,12,19,15.40
2014,05,18,12,20,15.30
2014,05,18,12,21,15.20
2014,05,18,12,22,15.20
2014,05,18,12,23,15.30
2014,05,18,12,24,15.30
2014,05,18,12,25,15.30
2014,05,18,12,26,15.30
2014,05,18,12,27,15.30
2014,05,18,12,28,15.30
2014,05,18,12,29,15.40
2014,05,18,12,30,15.40
2014,05,18,12,31,15.40
2014,05,18,12,32,15.40
2014,05,18,12,33,15.30
2014,05,18,12,34,15.30
2014,05,18,12,35,15.30
2014,05,18,12,36,15.30
2014,05,18,12,37,15.30
2014,05,18,12,38,15.30
2014,05,18,12,39,15.30
2014,05,18,12,40,15.30
2014,05,18,12,41,15.30
2014,05,18,12,42,15.30
2014,05,18,12,43,15.30
2014,05,18,12,44,15.30
2014,05,18,12,45,15.30
2014,05,18,12,46,15.30
2014,05,18,12,47,15.40
2014,05,18,12,48,15.40
2014,05,18,12,49,15.40
2014,05,18,12,50,15.50
2014,05,18,12,51,15.50
2014,05,18,12,52,15.60
2014,05,18,12,53,15.60
2014,05,18,12,54,15.70
2014,05,18,12,55,15.70
2014,05,18,12,56,15.70
2014,05,18,12,57,15.60
2014,05,18,12,58,15.60
2014,05,18,12,59,15.60
2014,05,18,13,00,15.60
2014,05,18,13,01,15.60
2014,05,18,13,02,15.60
2014,05,18,13,03,15.60
2014,05,18,13,04,15.70
2014,05,18,13,05,15.70
2014,05,18,13,06,15.80
2014,05,18,13,07,15.90
2014,05,18,13,08,15.90
2014,05,18,13,09,15.90
2014,05,18,13,10,15.80
2014,05,18,13,11,15.80
2014,05,18,13,12,15.80
2014,05,18,13,13,15.80
2014,05,18,13,14,15.90
2014,05,18,13,15,15.90
2014,05,18,13,16,16.00
2014,05,18,13,17,16.10
2014,05,18,13,18,16.10
2014,05,18,13,19,16.10
2014,05,18,13,20,16.10
2014,05,18,13,21,16.10
2014,05,18,13,22,16.00
2014,05,18,13,23,16.00
2014,05,18,13,24,15.90
2014,05,18,13,25,16.00
2014,05,18,13,26,16.00
2014,05,18,13,27,16.00
2014,05,18,13,28,16.00
2014,05,18,13,29,16.00
2014,05,18,13,30,16.10
2014,05,18,13,31,16.20
2014,05,18,13,32,16.30
2014,05,18,13,33,16.40
2014,05,18,13,34,16.40
2014,05,18,13,35,16.50
2014,05,18,13,36,16.50
2014,05,18,13,37,16.50
2014,05,18,13,38,16.60
2014,05,18,13,39,16.60
2014,05,18,13,40,16.50
2014,05,18,13,41,16.50
2014,05,18,13,42,16.40
2014,05,18,13,43,16.30
2014,05,18,13,44,16.30
2014,05,18,13,45,16.30
2014,05,18,13,46,16.30
2014,05,18,13,47,16.40
2014,05,18,13,48,16.40
2014,05,18,13,49,16.40
2014,05,18,13,50,16.50
2014,05,18,13,51,16.50
2014,05,18,13,52,16.50
2014,05,18,13,53,16.50
2014,05,18,13,54,16.50
2014,05,18,13,55,16.50
2014,05,18,13,56,16.40
2014,05,18,13,57,16.40
2014,05,18,13,58,16.40
2014,05,18,13,59,16.40
2014,05,18,14,00,16.40
2014,05,18,14,01,16.40
2014,05,18,14,02,16.30
2014,05,18,14,03,16.30
2014,05,18,14,04,16.40
2014,05,18,14,05,16.50
2014,05,18,14,06,16.60
2014,05,18,14,07,16.70
2014,05,18,14,08,16.80
2014,05,18,14,09,16.80
2014,05,18,14,10,16.80
2014,05,18,14,11,16.70
2014,05,18,14,12,16.80
2014,05,18,14,13,16.80
2014,05,18,14,14,16.80
2014,05,18,14,15,16.70
2014,05,18,14,16,16.60
2014,05,18,14,17,16.50
2014,05,18,14,18,16.50
2014,05,18,14,19,16.50
2014,05,18,14,20,16.50
2014,05,18,14,21,16.40
2014,05,18,14,22,16.40
2014,05,18,14,23,16.30
2014,05,18,14,24,16.30
2014,05,18,14,25,16.30
2014,05,18,14,26,16.30
2014,05,18,14,27,16.30
2014,05,18,14,28,16.30
2014,05,18,14,29,16.30
2014,05,18,14,30,16.30
2014,05,18,14,31,16.30
2014,05,18,14,32,16.30
2014,05,18,14,33,16.30
2014,05,18,14,34,16.30
2014,05,18,14,35,16.30
2014,05,18,14,36,16.30
2014,05,18,14,37,16.20
2014,05,18,14,38,16.20
2014,05,18,14,39,16.10
2014,05,18,14,40,16.10
2014,05,18,14,41,16.10
2014,05,18,14,42,16.10
2014,05,18,14,43,16.10
2014,05,18,14,44,16.20
2014,05,18,14,45,16.30
2014,05,18,14,46,16.30
2014,05,18,14,47,16.20
2014,05,18,14,48,16.30
2014,05,18,14,49,16.30
2014,05,18,14,50,16.30
2014,05,18,14,51,16.30
2014,05,18,14,52,16.30
2014,05,18,14,53,16.30
2014,05,18,14,54,16.30
2014,05,18,14,55,16.30
2014,05,18,14,56,16.20
2014,05,18,14,57,16.30
2014,05,18,14,58,16.30
2014,05,18,14,59,16.30
2014,05,18,15,00,16.30
2014,05,18,15,01,16.30
2014,05,18,15,02,16.40
2014,05,18,15,03,16.40
2014,05,18,15,04,16.30
2014,05,18,15,05,16.30
2014,05,18,15,06,16.20
2014,05,18,15,07,16.20
2014,05,18,15,08,16.20
2014,05,18,15,09,16.30
2014,05,18,15,10,16.40
2014,05,18,15,11,16.50
2014,05,18,15,12,16.50
2014,05,18,15,13,16.60
2014,05,18,15,14,16.60
2014,05,18,15,15,16.60
2014,05,18,15,16,16.60
2014,05,18,15,17,16.60
2014,05,18,15,18,16.60
2014,05,18,15,19,16.60
2014,05,18,15,20,16.60
2014,05,18,15,21,16.60
2014,05,18,15,22,16.50
2014,05,18,15,23,16.40
2014,05,18,15,24,16.40
2014,05,18,15,25,16.40
2014,05,18,15,26,16.40
2014,05,18,15,27,16.40
2014,05,18,15,28,16.40
2014,05,18,15,29,16.40
2014,05,18,15,30,16.50
2014,05,18,15,31,16.60
2014,05,18,15,32,16.80
2014,05,18,15,33,16.80
2014,05,18,15,34,16.90
2014,05,18,15,35,16.90
2014,05,18,15,36,16.90
2014,05,18,15,37,16.90
2014,05,18,15,38,16.80
2014,05,18,15,39,16.70
2014,05,18,15,40,16.50
2014,05,18,15,41,16.40
2014,05,18,15,42,16.30
2014,05,18,15,43,16.20
2014,05,18,15,44,16.20
2014,05,18,15,45,16.20
2014,05,18,15,46,16.20
2014,05,18,15,47,16.20
2014,05,18,15,48,16.30
2014,05,18,15,49,16.30
2014,05,18,15,50,16.30
2014,05,18,15,51,16.40
2014,05,18,15,52,16.40
2014,05,18,15,53,16.40
2014,05,18,15,54,16.40
2014,05,18,15,55,16.40
2014,05,18,15,56,16.30
2014,05,18,15,57,16.30
2014,05,18,15,58,16.30
2014,05,18,15,59,16.40
2014,05,18,16,00,16.50
2014,05,18,16,01,16.60
2014,05,18,16,02,16.70
2014,05,18,16,03,16.80
2014,05,18,16,04,17.00
2014,05,18,16,05,17.10
2014,05,18,16,06,17.10
2014,05,18,16,07,17.20
2014,05,18,16,08,17.20
2014,05,18,16,09,17.20
2014,05,18,16,10,17.10
2014,05,18,16,11,17.10
2014,05,18,16,12,17.10
2014,05,18,16,13,17.20
2014,05,18,16,14,17.30
2014,05,18,16,15,17.50
2014,05,18,16,16,17.70
2014,05,18,16,17,17.80
2014,05,18,16,18,17.90
2014,05,18,16,19,17.90
2014,05,18,16,20,17.90
2014,05,18,16,21,17.90
2014,05,18,16,22,17.90
2014,05,18,16,23,17.90
2014,05,18,16,24,17.80
2014,05,18,16,25,17.90
2014,05,18,16,26,18.00
2014,05,18,16,27,18.10
2014,05,18,16,28,18.20
2014,05,18,16,29,18.30
2014,05,18,16,30,18.30
2014,05,18,16,31,18.40
2014,05,18,16,32,18.40
2014,05,18,16,33,18.40
2014,05,18,16,34,18.50
2014,05,18,16,35,18.50
2014,05,18,16,36,18.60
2014,05,18,16,37,18.70
2014,05,18,16,38,18.80
2014,05,18,16,39,18.80
2014,05,18,16,40,18.80
2014,05,18,16,41,18.90
2014,05,18,16,42,18.90
2014,05,18,16,43,18.90
2014,05,18,16,44,18.80
2014,05,18,16,45,18.80
2014,05,18,16,46,18.70
2014,05,18,16,47,18.60
2014,05,18,16,48,18.50
2014,05,18,16,49,18.50
2014,05,18,16,50,18.50
2014,05,18,16,51,18.40
2014,05,18,16,52,18.40
2014,05,18,16,53,18.40
2014,05,18,16,54,18.40
2014,05,18,16,55,18.30
2014,05,18,16,56,18.30
2014,05,18,16,57,18.30
2014,05,18,16,58,18.20
2014,05,18,16,59,18.20
2014,05,18,17,00,18.20
2014,05,18,17,01,18.20
2014,05,18,17,02,18.30
2014,05,18,17,03,18.30
2014,05,18,17,04,18.30
2014,05,18,17,05,18.20
2014,05,18,17,06,18.20
2014,05,18,17,07,18.20
2014,05,18,17,08,18.10
2014,05,18,17,09,18.10
2014,05,18,17,10,18.20
2014,05,18,17,11,18.10
2014,05,18,17,12,18.10
2014,05,18,17,13,18.10
2014,05,18,17,14,18.10
2014,05,18,17,15,18.10
2014,05,18,17,16,18.10
2014,05,18,17,17,18.10
2014,05,18,17,18,18.10
2014,05,18,17,19,18.10